Garrison, ND

8:25 AM CST on December 07, 2016 (GMT -0600)
Garrison

Weather History for KN60 - November, 2011

Change the Weather History Date:

Wednesday, November 30, 2011

  Actual Average Record
Temperature  
Mean Temperature 31 °F -  
Max Temperature 33 °F - 45 °F (1999)
Min Temperature 28 °F - -11 °F (2014)
Degree Days  
Heating Degree Days 34    
Month to date heating degree days 1031  
Cooling Degree Days 0    
Moisture  
Dew Point 25 °F    
Average Humidity 85    
Maximum Humidity 92    
Minimum Humidity 78    
Precipitation  
Precipitation 0.10 in - 0.10 in (2011)
Month to date precipitation 0.24  
Year to date precipitation 17.24  
Sea Level Pressure  
Sea Level Pressure 30.10 in    
Wind  
Wind Speed 6 mph (NNE)    
Max Wind Speed 13 mph    
Max Gust Speed 20 mph    
T = Trace of Precipitation, MM = Missing Value Source: NWS Daily Summary

Daily Weather History Graph

Daily Weather History Graph

Search for Another Location

Airport or City:

Trip Planner

Search our weather history database for the weather conditions in past years. The results will help you decide how hot, cold, wet, or windy it might be!

Date:

Astronomy

Nov. 30, 2011 Rise Set
Actual Time 8:11 AM CST 4:56 PM CST
Civil Twilight 7:36 AM CST 5:31 PM CST
Nautical Twilight 6:57 AM CST 6:10 PM CST
Astronomical Twilight 6:20 AM CST 6:47 PM CST
Moon 12:17 PM CST (11/30) 11:11 PM CST (11/30)
Length of Visible Light 9h 55m
Length of Day
8h 45m
Waxing Crescent, 34% of the Moon is Illuminated
Nov 30
Waxing Crescent
Dec 2
First Quarter
Dec 10
Full
Dec 17
Last Quarter
Dec 24
New

Hourly Weather History & Observations

Time (CST) Temp. Windchill Dew Point Humidity Pressure Visibility Wind Dir Wind Speed Gust Speed Precip Events Conditions
12:52 AM 30.9 °F 25.2 °F 25.0 °F 79% 29.97 in - NW 5.8 mph - N/A   Unknown
1:52 AM 30.0 °F 24.1 °F 25.0 °F 82% 29.94 in - NNW 5.8 mph - N/A   Unknown
2:52 AM 32.0 °F 27.5 °F 26.1 °F 79% 29.95 in - NNW 4.6 mph - N/A   Unknown
3:52 AM 32.0 °F 25.6 °F 26.1 °F 79% 29.94 in - NNW 6.9 mph - N/A   Unknown
4:52 AM 32.0 °F - 26.1 °F 79% 29.94 in - Calm Calm - N/A   Unknown
5:52 AM 30.9 °F 26.2 °F 25.0 °F 79% 29.95 in - North 4.6 mph - N/A   Unknown
6:52 AM 30.9 °F - 26.1 °F 82% 29.95 in - Calm Calm - N/A   Unknown
7:52 AM 30.9 °F 27.5 °F 26.1 °F 82% 29.96 in - NNE 3.5 mph - N/A   Unknown
8:52 AM 30.0 °F 24.1 °F 25.0 °F 82% 29.97 in - NE 5.8 mph - N/A   Unknown
9:52 AM 30.0 °F 23.2 °F 25.0 °F 82% 29.99 in - ENE 6.9 mph - N/A   Unknown
10:52 AM 30.0 °F 24.1 °F 27.0 °F 88% 30.02 in - ENE 5.8 mph - 0.01 in   Unknown
11:52 AM 30.0 °F 23.2 °F 28.0 °F 92% 30.02 in - ENE 6.9 mph - 0.02 in   Unknown
12:52 PM 30.9 °F 25.2 °F 28.0 °F 89% 30.02 in - ENE 5.8 mph - N/A   Unknown
1:52 PM 30.9 °F 24.3 °F 28.0 °F 89% 30.04 in - NE 6.9 mph - 0.01 in   Unknown
2:52 PM 30.0 °F 22.4 °F 28.0 °F 92% 30.07 in - NE 8.1 mph 16.1 mph 0.02 in   Unknown
3:52 PM 28.9 °F 19.8 °F 26.1 °F 89% 30.11 in - NE 10.4 mph 17.3 mph 0.01 in   Unknown
4:52 PM 28.9 °F 19.2 °F 26.1 °F 89% 30.15 in - NE 11.5 mph 17.3 mph 0.02 in   Unknown
5:52 PM 28.0 °F 20.0 °F 25.0 °F 88% 30.20 in - NE 8.1 mph - 0.01 in   Unknown
6:52 PM 28.0 °F 19.3 °F 25.0 °F 88% 30.25 in - NE 9.2 mph - N/A   Unknown
7:52 PM 28.0 °F 20.8 °F 25.0 °F 88% 30.30 in - NNE 6.9 mph - N/A   Unknown
8:52 PM 27.0 °F 15.6 °F 21.9 °F 81% 30.35 in - NNE 13.8 mph 21.9 mph N/A   Unknown
9:52 PM 26.1 °F 16.8 °F 19.9 °F 78% 30.40 in - NNE 9.2 mph - N/A   Unknown
10:52 PM 25.0 °F 14.2 °F 19.9 °F 81% 30.45 in - NNE 11.5 mph 19.6 mph N/A   Unknown
11:52 PM 24.1 °F 14.4 °F 19.9 °F 84% 30.49 in - NNE 9.2 mph 16.1 mph N/A   Unknown